Overview Statistics Trail Chart Weather Telemetry Raw packets
 

This is the latest recevied weather packets stored in our database for station/object KI5NXU. If no packets are shown the sender has not sent any weather packets the latest 10 day(s).

<< 88 89 90 91 92 93 94 >>
Time Temp. Humidity Pressure Rain* Wind** Luminosity Snow
1787734068 30° C 60% 1015.2 hPa 0 mm - 0 W/m² -
1787733767 30° C 59% 1015.3 hPa 0 mm - 0 W/m² -
1787733462 30.56° C 57% 1015.3 hPa 0 mm - 0 W/m² -
1787733158 30.56° C 55% 1015.3 hPa 0 mm - 0 W/m² -
1787732853 30.56° C 53% 1015.4 hPa 0 mm - 0 W/m² -
1787732548 30° C 51% 1015.4 hPa 0 mm - 0 W/m² -
1787732243 30.56° C 50% 1015.5 hPa 0 mm - 0 W/m² -
1787731942 30.56° C 48% 1015.4 hPa 0 mm - 0 W/m² -
1787731641 30.56° C 46% 1015.3 hPa 0 mm - 0 W/m² -
1787731335 31.11° C 45% 1015.3 hPa 0 mm - 0 W/m² -
1787731029 31.11° C 45% 1015.4 hPa 0 mm - 0 W/m² -
1787730729 30.56° C 45% 1015.4 hPa 0 mm - 0 W/m² -
1787730429 31.11° C 45% 1015.5 hPa 0 mm - 0 W/m² -
1787730124 31.11° C 45% 1015.5 hPa 0 mm - 0 W/m² -
1787729819 31.67° C 43% 1015.4 hPa 0 mm - 0 W/m² -
1787729518 31.67° C 42% 1015.7 hPa 0 mm - 0 W/m² -
1787729213 31.67° C 42% 1015.5 hPa 0 mm - 0 W/m² -
1787728908 31.67° C 41% 1015.9 hPa 0 mm - 0 W/m² -
1787728604 32.22° C 42% 1016 hPa 0 mm - 0 W/m² -
1787728306 32.22° C 42% 1016.1 hPa 0 mm - 0 W/m² -
1787727995 32.22° C 41% 1015.6 hPa 0 mm - 0 W/m² -
1787727694 31.67° C 47% 1016 hPa 0 mm - 0 W/m² -
1787727392 32.22° C 45% 1015.3 hPa 0 mm - 0 W/m² -
1787727088 32.78° C 41% 1015.2 hPa 0 mm - 0 W/m² -
1787726782 32.78° C 41% 1014.9 hPa 0 mm - 0 W/m² -

* Rain latest hour (hover to see other rain measurements)
** Current wind speed in m/s (hover to see current wind gust speed)